Regional Weather Roundup
Issued by NWS

Home | Current Version | Previous Version | Graphics & Text | Print | Product List | Glossary On
Versions: 1 2 3 4 5 6 7 8 9 10 11 12 13 14 15 16 17 18 19 20 21 22 23 24 25 26 27 28 29 30 31 32 33 34 35 36 37 38 39 40 41 42 43 44 45 46 47 48 49 50
000
ASUS43 KIND 220609
RWRIN

WEATHER ROUNDUP FOR INDIANA
NATIONAL WEATHER SERVICE INDIANAPOLIS IN
200 AM EDT FRI AUG 22 2014

NOTE: "FAIR" INDICATES FEW OR NO CLOUDS BELOW 12,000 FEET WITH NO
SIGNIFICANT WEATHER AND/OR OBSTRUCTIONS TO VISIBILITY.

* - STATION DOES NOT REPORT WEATHER SUCH AS PRECIPITATION OR FOG.

+ - STATION NOT QUALITY CONTROLLED BY THE NATIONAL WEATHER SERVICE.
    USE DATA WITH CAUTION...ESPECIALLY DEWPOINT AND RELATIVE
    HUMIDITY OBSERVATIONS.

INZ001>003-010>013-019-020-220700-
NORTHWEST INDIANA

CITY           SKY/WX    TMP DP  RH WIND       PRES   REMARKS
GARY /AIRPORT/ CLOUDY    74  72  93 NE7       29.93F
KNOX *+        MOCLDY    71  68  90 S3        29.93F
LA PORTE +     MOCLDY    69  69 100 CALM      29.95F
6HR MIN TEMP:  69; 6HR MAX TEMP:  72;

MICHIGAN CITY+ MOCLDY    72  70  94 CALM      29.94F
MONTICELLO +   FAIR      72  71  96 SE7       29.94F
RENSSELAER +   RAIN      73  73 100 SE8       29.93F
VALPARAISO     LGT RAIN  71  69  93 SW17      29.97F FOG
6HR MIN TEMP:  71; 6HR MAX TEMP:  74; 6HR PCP:  0.10;


$$

LMZ046-743>745-220700-
SOUTHERN LAKE MICHIGAN

STATION/POSITION TIME  TEMP WIND        PRES
                       AIR  DIR/SP/G
                 (UTC) (F)  (DEG/KT/KT) (MB)
MICHIGAN CITY    0600   72  120/  8/ 11   N/A

$$

INZ004-005-014>016-021>024-220700-
NORTH CENTRAL INDIANA

CITY           SKY/WX    TMP DP  RH WIND       PRES   REMARKS
GOSHEN         MOCLDY    72  69  90 S5        29.95F
6HR MIN TEMP:  72; 6HR MAX TEMP:  76; 6HR PCP:  0.01;

LOGANSPORT +   LGT RAIN  70  68  94 S5        29.96F
PERU/GRISSOM   FAIR      70  70 100 S9        29.95F
6HR MIN TEMP:  69; 6HR MAX TEMP:  80; 6HR PCP:  1.09;

ROCHESTER +    FAIR      72  70  94 S5        29.95F
SOUTH BEND     FAIR      72  69  90 SE5       29.95F
6HR MIN TEMP:  72; 6HR MAX TEMP:  76;


$$

INZ006>009-017-018-025>027-220700-
NORTHEAST INDIANA

CITY           SKY/WX    TMP DP  RH WIND       PRES   REMARKS
ANGOLA *+      CLEAR     70  68  94 CALM      29.96F
AUBURN +       FAIR      70  64  83 CALM      29.98F
FORT WAYNE     MOCLDY    69  68  96 SW5       29.98F
6HR MIN TEMP:  68; 6HR MAX TEMP:  76; 6HR PCP:  1.06;

HUNTINGTON +   CLOUDY    70  69  97 SW3       29.96F
6HR MIN TEMP:  68; 6HR MAX TEMP:  70; 6HR PCP:  0.56;


$$

INZ028-029-035-036-043>045-051>053-220700-
WEST CENTRAL INDIANA

CITY           SKY/WX    TMP DP  RH WIND       PRES   REMARKS
GREENCASTLE +  FAIR      77  73  88 S3        30.00F
LAFAYETTE      LGT RAIN  74  73  97 CALM      29.94F
6HR MIN TEMP:  73; 6HR MAX TEMP:  82; 6HR PCP: TRACE;

TERRE HAUTE    FAIR      78  73  84 SW8       29.98F
6HR MIN TEMP:  76; 6HR MAX TEMP:  85;


$$

INZ030>032-037>040-046>048-054>057-064-065-220700-
CENTRAL INDIANA

CITY           SKY/WX    TMP DP  RH WIND       PRES   REMARKS
CP ATTERBURY + FAIR      75  72  88 SE5       30.01F
FRANKFORT +    MOCLDY   N/A N/A N/A SE6       29.99F
INDIANAPOLIS   CLOUDY    73  70  90 SE3       30.00F
6HR MIN TEMP:  73; 6HR MAX TEMP:  83; 6HR PCP: TRACE;

-EAGLE CREEK   LGT RAIN  72  70  93 S7        29.99F
6HR MIN TEMP:  72; 6HR MAX TEMP:  84; 6HR PCP:  1.13;

KOKOMO *+      MOCLDY    70  66  88 S7        29.97F
MARION +       CLOUDY    69  68  97 E12       29.99F
MT COMFORT *+  FAIR      70 N/A N/A CALM      30.01F
SHELBYVILLE    FAIR      74  50  43 S5        30.00F
6HR MIN TEMP:  73; 6HR MAX TEMP:  83; 6HR PCP:  0.03;

ZIONSVILLE +   RAIN      72  68  89 SE5       30.00F
6HR MIN TEMP:  72; 6HR MAX TEMP:  82; 6HR PCP:  0.24;


$$

INZ033-034-041-042-049-050-058-059-220700-
EAST CENTRAL INDIANA

CITY           SKY/WX    TMP DP  RH WIND       PRES   REMARKS
MUNCIE         LGT RAIN  70  67  90 S3        30.00F
6HR MIN TEMP:  69; 6HR MAX TEMP:  81; 6HR PCP:  1.22;


$$

INZ060-061-067>069-081>083-085>088-220700-
SOUTHWEST INDIANA

CITY           SKY/WX    TMP DP  RH WIND       PRES   REMARKS
EVANSVILLE     FAIR      78  72  81 SW6       30.03S
6HR MIN TEMP:  78; 6HR MAX TEMP:  87;

WASHINGTON +   FAIR      77  74  88 S7        30.00F
6HR MIN TEMP:  73; 6HR MAX TEMP:  85;


$$

INZ062-063-066-070>080-084-089>092-220700-
SOUTH CENTRAL AND SOUTHEAST INDIANA

CITY           SKY/WX    TMP DP  RH WIND       PRES   REMARKS
BEDFORD +      FAIR      75  70  83 S3        30.02F
BLOOMINGTON    FAIR      77  72  84 SW7       30.01F
6HR MIN TEMP:  74; 6HR MAX TEMP:  83;

NORTH VERNON + FAIR      75  75 100 CALM      30.04  FOG
SEYMOUR +      FAIR      68  61  77 S5        30.01

$$



USA.gov is the U.S. government's official web portal to all federal, state and local government web resources and services.